1347583826006,0.000147108
1347583886006,0.000145564
1347583946006,0.000146144
1347584006006,0.000147303
1347584066006,0.000146285
1347587426017,0.000150515
1347587486017,0.000149568
1347587546017,0.000148936
1347587606017,0.000147962
1347587666017,0.000151626
1347587726017,0.000148603
1347587786017,0.000148933
1347587846017,0.000148735
1347587906017,0.000146684
1347587966017,0.000147361
1347588026018,0.000146987
1347588086018,0.000146937
1347588146018,0.000147597
1347588206018,0.000146192
1347588266018,0.000147886
1347588326018,0.000146276
1347588386018,0.000147695
1347588446018,0.000146649
1347588506018,0.000145670
1347588566018,0.000145907
1347588626018,0.000144861
1347588686018,0.000145959
1347588746018,0.000144589
1347588806018,0.000145931
1347588866018,0.000145178
1347588926018,0.000146578
1347588986018,0.000144647
1347589046018,0.000146013
1347589106018,0.000145444
1347589166018,0.000145899
1347589226018,0.000147212
1347589286018,0.000145895
1347589346018,0.000145457
1347589406018,0.000145233
1347589466018,0.000147321
1347589526018,0.000147201
1347589586018,0.000145359
1347589646018,0.000148502
1347589706018,0.000146601
1347589766018,0.000147308
1347589826018,0.000147507
1347589886018,0.000147940
1347589946018,0.000146293
1347590006018,0.000147857
1347590066018,0.000146795
1347590126018,0.000144879
1347590186018,0.000147248
1347590246018,0.000146540
1347590306018,0.000147359
1347590366018,0.000145274
1347590426018,0.000146789
1347590486018,0.000146505
1347590546018,0.000146663
1347590606018,0.000146905
1347590666018,0.000145890
1347590726018,0.000144986
1347590786018,0.000145306
1347590846018,0.000144854
1347590906018,0.000145605
1347590966018,0.000144408
1347591026018,0.000144999
1347591086018,0.000146115
1347591146018,0.000146645
1347591206018,0.000146625
1347591266018,0.000144968
1347591326018,0.000146524
1347591386018,0.000146863
1347591446018,0.000148027
1347591506018,0.000146935
1347591566018,0.000146682
1347591626029,0.000147509
1347591686029,0.000146365
1347591746029,0.000145954
1347591806029,0.000145603
1347591866029,0.000147399
1347591926029,0.000147308
1347591986029,0.000146594
1347592046029,0.000149201
1347592106029,0.000148205
1347592166029,0.000148036
1347592226029,0.000146743
1347592286029,0.000146937
1347592346029,0.000147577
1347592406029,0.000147135
1347592466029,0.000146683
1347592526029,0.000145941
1347592586029,0.000147659
1347592646029,0.000146999
1347592706029,0.000144962
1347592766029,0.000146278
1347592826029,0.000148324
1347592886029,0.000145922
1347592946029,0.000146610
1347593006029,0.000148457
1347593066029,0.000148373
1347593126029,0.000148852
1347593186029,0.000146630
1347593246029,0.000147799
1347593306029,0.000147277
1347593366029,0.000146334
1347593426029,0.000145992
1347593486029,0.000146707
1347593546029,0.000146554
1347593606029,0.000146134
1347593666029,0.000147179
1347593726029,0.000145883
1347593786029,0.000145653
1347593846029,0.000144639
1347593906029,0.000146776
1347593966029,0.000148689
1347594026029,0.000146636
1347594086029,0.000147234
1347594146029,0.000147257
1347594206029,0.000149178
1347594266029,0.000146638
1347594326029,0.000147243
1347594386029,0.000145111
1347594446029,0.000145240
1347594506029,0.000147117
1347594566029,0.000147085
1347594626029,0.000147117
1347594686029,0.000147516
1347594746029,0.000148904
1347594806029,0.000148587
1347594866029,0.000148617
1347594926029,0.000148373
1347594986029,0.000148021
1347595046029,0.000149095
1347595106029,0.000146791
1347595166029,0.000147583
1347595226039,0.000148458
1347595286039,0.000148220
1347595346039,0.000147422
1347595406039,0.000149140
1347595466039,0.000150236
1347595526039,0.000148501
1347595586039,0.000148355
1347595646039,0.000147593
1347595706039,0.000145757
1347595766039,0.000147354
1347595826039,0.000145399
1347595886039,0.000144655
1347595946039,0.000144039
1347596006039,0.000145980
1347596066039,0.000145336
1347596126039,0.000145625
1347596186039,0.000146381
1347596246039,0.000144730
1347596306039,0.000145825
1347596366039,0.000144600
1347596426039,0.000146402
1347596486039,0.000147810
1347596546039,0.000146341
1347596606039,0.000145271
1347596666039,0.000146572
1347596726039,0.000143715
1347596786039,0.000146213
1347596846039,0.000145395
1347596906039,0.000145443
1347596966039,0.000145775
1347597026039,0.000145532
1347597086039,0.000144854
1347597146039,0.000145422
1347597206039,0.000145140
1347597266039,0.000146348
1347597326039,0.000145337
1347597386039,0.000144122
1347597446039,0.000146012
1347597506039,0.000145579
1347597566039,0.000144097
1347597626039,0.000144087
1347597686039,0.000145748
1347597746039,0.000144376
1347597806039,0.000144385
1347597866039,0.000144996
1347597926039,0.000144897
1347597986039,0.000144070
1347598046039,0.000144392
1347598106039,0.000145129
1347598166039,0.000146564
1347598226039,0.000146448
1347598286039,0.000146643
1347598346039,0.000146452
1347598406039,0.000146262
1347598466039,0.000144910
1347601826057,0.000146575
1347601886057,0.000146627
1347601946057,0.000145814
1347602006057,0.000145238
1347602066057,0.000145834
1347616346096,0.000145288
1347616406096,0.000143980
1347616466096,0.000144501
1347619826107,0.000143593
1347619886107,0.000143412
1347619946107,0.000144106
1347620006107,0.000143948
1347620066107,0.000144936
1347623426118,0.000143030
1347623486118,0.000144285
1347623546118,0.000144044
1347623606118,0.000144805
1347623666118,0.000143810
1347627026130,0.000142281
1347627086130,0.000144544
1347627146130,0.000142343
1347627206130,0.000143835
1347627266130,0.000144397
1347630626142,0.000144691
1347630686142,0.000144738
1347630746142,0.000142357
1347630806142,0.000144388
1347630866142,0.000145050
1347634226154,0.000145527
1347634286154,0.000144809
1347634346154,0.000145862
1347634406154,0.000144731
1347634466154,0.000143660
1347637826166,0.000146124
1347637886166,0.000146572
1347637946166,0.000146744
1347638006166,0.000146263
1347638066166,0.000145580
1347641426179,0.000144973
1347641486179,0.000145376
1347641546179,0.000146924
1347641606179,0.000145788
1347641666179,0.000147591
1347645026191,0.000146122
1347645086191,0.000145652
1347645146191,0.000146059
1347645206191,0.000146237
1347645266191,0.000146294
1347648626204,0.000145999
1347648686204,0.000145939
1347648746204,0.000146910
1347648806204,0.000145383
1347648866204,0.000146556
1347652226216,0.000146033
1347652286216,0.000145429
1347652346216,0.000146641
1347652406216,0.000146946
1347652466216,0.000146550
1347655826228,0.000147772
1347655886228,0.000147380
1347655946228,0.000147308
1347656006228,0.000148087
1347656066228,0.000149152
1347659426240,0.000147298
1347659486240,0.000150723
1347659546240,0.000148763
1347659606240,0.000148348
1347659666240,0.000147181
1347663026251,0.000146903
1347663086251,0.000147928
1347663146251,0.000148370
1347663206251,0.000147035
1347663266251,0.000148036
1347666626262,0.000148285
1347666686262,0.000146006
1347666746262,0.000145678
1347666806262,0.000147456
1347666866262,0.000146384
